Location: Crescent
(42.8242°N, 73.7329°W)
Time: 18:26:52
(UTC+00:00)

Transit 2A - Pass Details

Date: 13 November 2024
Orbit: 593 x 956 km, 66.7° (Epoch: 14 December)

Event Time Altitude Azimuth Distance (km) Brightness Sun altitude
Exits shadow 08:44:38 50° 139° (SE) 1,194 7.0 -33.1°
Maximum altitude 08:45:23 53° 114° (ESE) 1,156 7.0 -32.9°
Drops below altitude 10° 08:51:29 10° 39° (NE) 2,668 9.3 -31.8°
Sets 08:54:03 0° 35° (NE) 3,591 10.0 -31.4°
